CZ-2C R/B

Last updated on Mon Sep 15 2025 00:02:15 GMT+0000 (Coordinated Universal Time)

1 52794U 22058K 25257.06371817 .00013990 00000+0 30687-3 0 9996 2 52794 50.1917 138.7989 0054189 183.3790 176.6817 15.42761210182764
UTC large
Height (km)
Speed (km/s)
/
Latitude / Longitude
Inclination (degrees)
Orbital Period (minutes)
Azimuth
Elevation
Range (km)
Doppler Factor

Next 0 passes for location: London (51.5072 / 0.1276)

Sorry there are no passes over London.